Regional Weather Roundup
Issued by NWS Charleston, SC

Current Version | Previous Version | Graphics & Text | Print | Product List | Glossary On
Versions: 1 2 3 4 5 6 7 8 9 10 11 12 13 14 15 16 17 18 19 20 21 22 23 24 25 26 27 28 29 30 31 32 33 34 35 36 37 38 39 40 41 42 43 44 45 46 47 48 49 50
142 ASUS42 KCHS 280612 RWRCHS REGIONAL WEATHER ROUNDUP NATIONAL WEATHER SERVICE CHARLESTON SC 200 AM EDT FRI APR 28 2017 NOTE: "FAIR" INDICATES FEW OR NO CLOUDS BELOW 12,000 FEET WITH NO SIGNIFICANT WEATHER AND/OR OBSTRUCTIONS TO VISIBILITY. NOT ALL STATIONS ARE QUALITY CONTROLLED. USE DATA WITH CAUTION... ESPECIALLY DEWPOINT OBSERVATIONS. SCZ027-030-031-034>040-042>050-280700- ...SOUTHEAST SOUTH CAROLINA... CITY SKY/WX TMP DP RH WIND PRES REMARKS N CHARLESTON MOCLDY 76 71 85 SW13 29.96R 6HR MIN TEMP: 74; 6HR MAX TEMP: 76; WATERFRONT PRK N/A 75 73 93 SW9 29.94R JOHNS ISLAND CLOUDY 75 73 94 S7 29.96S PINOPOLIS N/A 75 72 88 SW5 29.88R MONCKS CORNER MOCLDY 73 70 88 S9 29.96R SUMMERVILLE FAIR 73 70 88 S5 29.97R BEAUFORT MCAS CLOUDY 76 74 93 S6G16 29.95R 6HR MIN TEMP: 76; 6HR MAX TEMP: 78; BEAUFORT ARPT FAIR 73 72 94 S9 29.95R HILTON HEAD IS CLOUDY 75 75 100 S10G17 29.96R WALTERBORO CLOUDY 72 70 94 S5 29.96R ALLENDALE FAIR 72 66 83 CALM 29.94R ...SOUTHERN MIDLANDS AND PEE DEE... CITY SKY/WX TMP DP RH WIND PRES REMARKS GEORGETOWN CLOUDY 73 72 94 S7 29.98R KINGSTREE FAIR 72 68 88 S5 29.95R ORANGEBURG MOCLDY 70 64 81 S3 29.95R 6HR MIN TEMP: 70; 6HR MAX TEMP: 77; BARNWELL FAIR 75 66 73 CALM 29.95R AIKEN FAIR 68 64 88 SE5 29.97S MANNING FAIR 72 68 88 S7G23 29.95S COLUMBIA CLOUDY 73 62 68 S3 29.93R 6HR MIN TEMP: 73; 6HR MAX TEMP: 79; 6HR PCP: TRACE; SUMTER CLOUDY 73 63 71 S9 29.92R 6HR MIN TEMP: 72; 6HR MAX TEMP: 77; FLORENCE PTCLDY 73 69 87 S9 29.94S 6HR MIN TEMP: 72; 6HR MAX TEMP: 76; MYRTLE BEACH CLOUDY 73 72 96 S10 29.98R N MYRTLE BEACH CLOUDY 73 72 96 S10 29.97R 6HR MIN TEMP: 72; 6HR MAX TEMP: 73; $$ GAZ063-065-086>088-099>101-113>116-118-119-134>141-150-280700- ...SOUTHEAST GEORGIA... CITY SKY/WX TMP DP RH WIND PRES REMARKS SAVANNAH ARPT CLOUDY 75 70 84 SW5 29.95R 6HR MIN TEMP: 75; 6HR MAX TEMP: 79; HUNTER AAF CLOUDY 75 75 100 CALM 29.92R 6HR MIN TEMP: 75; 6HR MAX TEMP: 78; FORT STEWART CLOUDY 71 67 88 SW3 29.93R 6HR MIN TEMP: 71; 6HR MAX TEMP: 79; 6HR PCP: TRACE; STATESBORO PTCLDY 71 65 83 SE3 29.96R SYLVANIA PTCLDY N/A N/A N/A CALM 29.96R CLAXTON FAIR 70 70 100 CALM 29.96R ...CSRA...CENTRAL AND FAR SOUTHEAST GEORGIA... CITY SKY/WX TMP DP RH WIND PRES REMARKS THOMSON MOCLDY 67 66 96 CALM 29.98R FOG AUGUSTA-BUSH FOG 68 67 96 CALM 29.92R VSB 3/4 6HR MIN TEMP: 69; 6HR MAX TEMP: 77; AUGUSTA-DANIEL CLEAR 72 64 76 SE5 29.94R SWAINSBORO FAIR 70 64 83 CALM 29.95S VIDALIA PTCLDY 73 68 83 CALM 29.95R EASTMAN FAIR 74 62 64 SW3 29.96S HAZLEHURST FAIR 72 72 98 SW3 29.94R ALMA CLEAR 71 68 90 CALM 29.95R 6HR MIN TEMP: 71; 6HR MAX TEMP: 82; WAYCROSS PTCLDY 73 70 91 SW3 29.95S JESUP FAIR 70 63 78 CALM 29.96R BAXLEY FAIR 72 72 100 S3 29.95R BRUNSWICK CLEAR 72 72 100 CALM 29.96S SAINT SIMONS CLEAR 75 72 90 S5 29.95F 6HR MIN TEMP: 75; 6HR MAX TEMP: 76; $$ SCZ027-028-034-036>038-045-046-048>050-GAZ119-141-280700- ...LAKE AND SUPPLEMENTAL COASTAL OBSERVATIONS... STATION/POSITION TIME TEMP WIND PRES WAVE SWELL AIR SEA DIR/SP/G HT/PER HT/PER/DIR (UTC) (F) (DEG/KT/KT) (MB) (FT/S) (FT/S/D) WINYAH BAY 0445 74 190/ 9 1014.0 LAKE MURRAY 0520 72 160/ 6/ 8 1012.5S ACE BASIN NERRS 0445 75 180/ 2 1014.0 FORT PULASKI 0548 75 74 200/ 7/ 11 1014.2R SAPELO ISLAND 0500 75 170/ 7 1014.0 $$ ANZ835-935-AMZ111-154-330-350-352-354-370-450-454-472-280700- ...C-MAN AND BUOY OBSERVATIONS... STATION/POSITION TIME TEMP WIND PRES WAVE SWELL AIR SEA DIR/SP/G HT/PER HT/PER/DIR (UTC) (F) (DEG/KT/KT) (MB) (FT/S) (FT/S/D) BUOY 41004 0550 75 74 170/ 14/ 16 1014.4F 4/ 8 3/120/ 8 BUOY 41008 0450 74 73 180/ 12/ 14 1014.2 3/ 5 2/120/ 9 FOLLY BEACH CMAN 0600 74 200/ 11/ 12 1015.1R CAPERS NEARSHORE 0508 74 73 210/ 12/ 16 1014.3S FRIPP NEARSHORE 0508 74 72 200/ 16/ 17 1013.7F STATION/POSITION TIME TEMP WIND PRES WAVE SWELL AIR SEA DIR/SP/G HT/PER HT/PER/DIR (UTC) (F) (DEG/KT/KT) (MB) (FT/S) (FT/S/D) 5E ST. MARYS GA 0530 74 N/A 3/ 9 FRYING PAN BUOY 0550 75 72 180/ 12/ 14 1015.3F 5/ 6 3/130/ 8 BUOY 41025 0550 77 77 220/ 17/ 23 1016.1S 5/ 6 3/130/ 8 CAPE LOOKOUT NC 0600 73 180/ 15/ 16 1015.0F BUOY 41002 0550 74 75 170/ 12/ 16 1018.7R 4/ 8 3/120/ 8 BUOY 41010 0550 78 78 150/ 16/ 19 1016.3R 4/ 8 3/100/ 8 ST AUGUSTINE FL 0600 75 76 180/ 5/ 5 1015.6F $$

USA.gov is the U.S. government's official web portal to all federal, state and local government web resources and services.